Location: La Brionne
(46.1728°N, 1.7849°E)
Time: 21:35:26
(UTC+00:00)

Cosmos 1302 Rocket - Pass Details

Date: 16 June 2021
Orbit: 757 x 775 km, 74.0° (Epoch: 02 August)

Event Time Altitude Azimuth Distance (km) Brightness Sun altitude
Exits shadow 21:42:30 21° 164° (SSE) 1,688 5.2 -14.4°
Maximum altitude 21:45:38 43° 104° (ESE) 1,077 4.4 -14.6°
Drops below altitude 10° 21:50:34 10° 34° (NE) 2,314 6.8 -15.1°
Sets 21:53:02 0° 28° (NNE) 3,242 7.7 -15.3°
